Lapse_Rate
8.2 8.3 8.1 8.0 8.3 8.7 8.6 8.7 8.8 9.0 8.9 8.9 8.7 9.0 8.9 8.7 8.4 8.1 8.2 8.3 8.3 8.3 8.0 7.7 7.5 7.4 7.6 7.5 7.4 7.3 7.2 7.2 7.3 7.3 7.3 7.3 6.9 6.7 6.5 6.4 6.3 6.3 6.3 6.4
8.2 8.2 8.4 8.4 8.2 8.3 8.4 8.7 8.8 9.0 8.9 9.1 8.9 8.8 8.9 8.7 8.6 8.4 8.3 8.1 8.2 8.1 8.2 8.1 7.9 7.7 7.7 7.6 7.4 7.3 7.4 7.3 7.3 7.2 7.0 6.8 6.7 6.6 6.6 6.5 6.5 6.4 6.4 6.4
8.1 8.1 8.3 8.6 8.5 8.3 8.2 8.5 8.6 8.7 8.4 9.0 8.5 8.5 8.5 8.5 8.3 8.0 8.0 7.9 7.8 8.2 8.2 8.3 8.3 8.3 8.1 7.9 7.7 7.5 7.5 7.3 7.2 7.2 7.0 6.8 6.8 6.7 6.6 6.6 6.6 6.5 6.5 6.4
7.8 7.9 7.9 8.2 8.2 8.1 8.2 8.7 8.5 8.4 8.3 8.5 8.5 8.0 8.9 8.7 8.5 8.2 8.0 8.1 8.2 8.0 8.0 7.9 8.2 8.3 8.4 8.3 7.8 7.6 7.5 7.4 7.0 7.0 7.0 7.0 6.9 6.9 6.8 6.6 6.6 6.6 6.5 6.4
8.1 7.8 7.9 8.1 8.3 8.1 8.2 8.2 8.2 8.3 8.7 8.6 8.6 8.3 8.7 8.7 8.5 8.5 8.6 8.4 8.2 8.2 8.0 8.2 8.3 8.3 8.3 8.1 8.1 7.8 7.5 7.4 7.1 6.9 6.9 6.9 6.9 6.8 6.6 6.7 6.6 6.5 6.4 6.3
7.9 7.9 7.8 7.8 8.2 8.3 8.1 8.2 8.2 8.5 8.5 7.8 8.6 8.5 8.7 8.7 8.4 8.3 8.3 8.0 8.1 8.1 8.1 8.2 8.1 8.1 7.9 7.7 7.6 7.4 7.1 7.0 7.0 6.9 7.1 7.0 6.7 6.6 6.6 6.5 6.6 6.5 6.4 6.3
7.6 7.8 7.5 7.6 7.9 8.3 8.2 7.9 7.5 7.1 6.8 6.8 8.3 7.9 8.7 8.8 8.6 8.4 8.2 8.1 8.0 8.0 8.1 8.1 8.0 8.0 7.7 7.6 7.3 7.0 7.0 6.8 6.7 6.6 6.6 6.9 6.6 6.7 6.5 6.7 6.7 6.3 6.1 6.2
7.8 8.0 7.8 7.9 7.9 8.3 8.2 7.9 7.4 7.3 6.0 7.0 8.3 7.7 8.5 8.8 8.9 8.7 8.4 8.0 7.9 8.0 7.8 7.8 7.8 7.7 7.6 7.5 7.3 7.1 7.1 7.0 6.8 7.1 7.0 6.8 6.7 6.7 6.7 6.7 6.5 6.4 6.4 6.5
7.9 7.7 7.9 8.0 8.5 8.5 8.1 8.0 8.1 7.9 7.0 7.0 8.1 8.3 8.4 8.8 8.8 8.8 8.8 8.4 8.1 8.0 7.9 7.8 7.7 7.8 7.4 7.2 7.1 7.2 6.9 6.9 6.9 6.9 7.0 6.9 6.6 6.5 6.5 6.5 6.0 6.4 6.0 6.3
8.2 8.4 8.1 8.2 8.4 8.3 8.2 8.2 8.1 8.2 7.3 7.3 7.7 8.1 8.5 8.6 8.7 8.7 8.7 8.6 8.5 8.2 8.1 7.9 7.7 7.6 7.3 7.1 7.0 7.1 7.1 6.9 6.9 7.0 6.7 6.6 6.4 6.4 6.1 6.1 6.3 6.3 6.0 6.6
8.3 8.1 8.6 8.4 8.3 8.9 8.8 8.4 8.1 8.1 8.0 6.5 6.1 8.1 8.8 8.7 8.6 8.4 8.4 8.5 8.5 8.2 8.0 7.8 7.8 7.7 7.6 7.5 7.5 7.5 7.4 7.2 7.1 6.8 6.5 6.5 6.4 6.6 6.4 6.1 5.9 5.9 6.0 6.2
8.5 8.4 8.5 8.6 8.8 8.6 8.6 8.6 8.3 8.2 8.0 8.1 8.0 8.1 8.8 8.7 8.7 8.4 8.4 8.4 8.5 8.4 8.2 8.1 8.1 8.1 8.0 7.8 7.6 7.4 7.2 7.0 6.7 6.4 6.4 6.4 6.5 6.2 6.2 6.6 6.3 6.5 6.2 6.3
8.5 8.0 8.2 8.5 8.7 8.3 8.2 8.3 8.5 8.6 8.2 8.1 7.1 7.9 8.6 8.6 8.4 8.2 8.1 8.1 8.2 8.2 8.2 8.0 7.9 7.8 7.5 7.2 7.0 6.9 6.8 6.8 6.5 6.4 6.5 6.7 6.5 6.6 6.6 6.5 6.3 6.5 6.1 6.3
8.7 8.7 8.4 8.0 8.7 9.2 8.9 8.8 8.7 8.5 8.2 8.2 8.1 8.4 8.5 8.5 8.4 8.2 8.2 7.9 7.7 7.7 7.7 7.7 7.5 7.2 6.9 6.8 6.7 6.7 6.4 6.3 6.2 6.3 6.5 6.3 6.4 6.4 6.2 6.1 6.1 6.1 6.1 6.1
8.7 8.5 8.7 8.7 8.7 8.6 8.7 8.7 8.5 8.3 8.3 8.1 8.2 8.2 8.4 8.3 8.3 8.3 8.3 7.9 7.8 7.6 7.7 7.5 7.2 7.0 7.0 6.7 6.6 6.3 6.4 6.4 6.4 6.5 6.7 6.4 6.3 6.1 6.1 6.0 6.3 6.4 6.3 6.4
8.7 8.7 8.6 8.5 8.5 8.5 8.4 8.6 8.5 8.2 8.3 8.1 8.2 8.1 8.4 8.3 8.3 8.3 8.3 8.2 8.1 7.9 7.8 7.5 7.2 7.1 6.9 6.7 6.5 6.5 6.3 6.3 6.3 6.3 6.2 6.4 6.2 6.2 6.2 6.3 6.2 6.3 6.2 6.3
8.4 8.6 8.5 8.3 8.4 8.2 7.7 8.2 8.3 8.1 8.2 8.3 8.1 8.2 8.2 8.3 8.2 8.2 8.2 8.2 8.1 7.8 7.5 7.3 7.4 7.2 6.9 6.6 6.4 6.2 6.2 6.1 6.2 6.2 6.2 6.1 5.9 6.2 6.4 6.4 6.2 6.4 5.7 5.4
8.4 8.3 8.2 8.0 8.0 5.7 7.6 7.8 7.9 8.1 7.9 8.0 8.2 8.1 8.0 8.0 8.1 7.9 7.9 7.7 7.6 7.5 7.4 7.3 6.9 6.5 6.3 6.3 6.3 6.4 6.4 6.3 6.3 6.3 6.2 6.2 6.2 6.2 6.2 6.4 6.3 5.6 5.6 5.8
8.2 8.2 7.7 7.5 7.4 7.4 7.3 7.4 7.7 7.7 7.6 7.8 7.9 8.0 7.8 7.6 7.7 7.7 7.7 7.6 7.3 7.0 6.7 6.4 6.2 6.0 5.9 6.0 6.1 6.2 6.3 6.2 6.1 6.0 6.1 6.3 6.4 6.3 6.5 6.3 5.5 6.1 5.6 5.7
7.7 7.8 7.7 7.2 7.1 5.3 7.6 7.9 7.7 7.7 7.4 7.4 7.3 7.6 7.8 7.7 7.8 7.5 7.2 7.0 6.8 6.5 6.3 6.2 6.1 6.1 6.1 6.1 6.2 6.2 5.9 5.8 5.8 5.9 6.1 6.2 6.4 6.5 5.8 6.0 6.0 6.0 5.8 6.0
7.4 7.6 7.3 7.3 7.0 7.1 7.5 7.8 7.9 7.3 7.6 7.9 7.8 7.6 7.5 7.3 7.0 6.8 6.9 6.9 6.7 6.5 6.3 6.2 6.0 5.9 5.9 6.0 5.9 5.8 5.5 5.4 5.5 5.7 6.1 5.8 5.9 6.0 6.0 5.9 6.0 6.0 6.1 6.1
7.9 7.7 7.1 7.0 6.9 6.5 7.4 7.6 7.5 8.0 8.1 8.2 8.1 7.8 7.3 7.0 6.9 7.0 6.9 6.7 6.4 6.3 6.1 6.0 5.9 5.8 5.6 5.3 5.2 5.3 5.5 5.2 5.5 5.9 6.0 5.8 5.9 6.0 6.1 6.1 6.1 6.0 5.8 5.9
7.5 7.7 7.6 7.3 7.0 7.2 7.2 7.5 7.7 7.8 7.9 7.7 7.5 7.3 6.9 6.9 6.9 6.8 6.5 6.3 6.1 5.9 5.8 5.7 5.4 5.0 5.1 5.2 5.1 5.1 4.9 5.4 5.7 5.7 5.8 5.6 5.7 5.9 6.0 6.0 5.8 5.7 5.9 6.1
7.5 7.5 7.1 7.2 7.0 7.2 7.3 7.5 7.5 7.5 7.4 7.2 7.0 6.9 6.8 6.7 6.5 6.3 6.1 6.1 5.9 5.7 5.5 5.4 4.9 5.2 5.2 5.2 5.1 4.8 5.1 5.4 5.4 5.3 5.3 5.4 5.7 5.8 5.7 5.6 5.8 5.9 6.0 6.2
7.9 7.6 7.3 7.2 7.2 7.4 7.3 7.3 7.2 7.2 7.1 7.0 6.8 6.7 6.5 6.4 6.3 6.1 6.0 5.9 5.7 5.6 5.5 5.1 5.0 5.0 5.0 4.9 4.9 5.1 5.2 5.3 5.2 5.2 5.3 5.5 5.7 5.7 5.7 5.8 6.0 6.1 6.2 6.2
8.1 7.9 7.7 7.7 7.8 7.5 7.4 7.3 7.1 7.0 6.9 6.7 6.6 6.5 6.4 6.2 6.2 6.1 6.0 5.9 5.8 5.7 5.5 5.2 5.2 5.3 5.1 5.0 5.0 5.2 5.3 5.2 5.2 5.4 5.7 5.8 5.9 6.0 6.1 6.2 6.4 6.4 6.6 6.8
Wind_Speed
3 4 2 5 3 5 4 3 5 6 4 6 7 5 7 8 8 8 8 9 12 15 14 14 13 12 9 6 8 10 10 9 9 6 5 3 3 2 1 6 12 13 14 15
4 2 7 5 4 3 3 1 3 6 5 6 3 8 3 7 7 13 12 9 12 13 12 14 14 13 12 12 10 9 12 11 9 7 3 3 3 2 2 7 10 12 14 16
5 4 2 4 2 2 1 1 5 3 6 2 4 5 5 5 4 6 9 12 11 16 17 17 17 17 13 14 15 14 14 15 11 7 4 3 3 4 2 2 3 8 14 16
4 3 2 3 3 3 1 3 6 5 2 4 4 4 5 6 11 13 15 14 15 16 17 17 17 16 17 19 16 16 14 15 10 10 7 6 4 4 4 4 3 5 13 13
7 7 4 3 5 4 5 1 4 2 5 2 0 2 7 2 7 12 17 16 16 17 18 19 20 21 19 13 12 10 9 11 11 12 9 5 4 3 3 3 6 4 4 6
4 1 4 5 4 6 3 2 6 4 3 2 3 4 5 4 11 12 5 14 16 16 16 14 12 8 11 8 9 9 12 13 11 11 9 10 8 6 4 5 4 4 4 5
2 3 2 3 3 2 4 5 3 4 3 5 1 1 8 6 8 8 12 16 14 15 12 11 13 13 12 13 12 11 12 13 12 13 12 11 10 9 7 7 6 7 5 3
5 5 6 3 3 5 2 5 4 3 2 4 2 4 5 5 8 3 8 7 6 11 14 13 15 16 15 15 14 13 13 12 13 11 10 7 7 6 5 6 7 6 6 6
5 5 2 2 2 5 2 2 3 6 2 3 3 6 9 7 5 6 4 5 8 10 14 16 12 13 12 14 15 15 13 14 9 9 6 7 5 7 7 9 9 6 7 6
7 1 3 2 2 3 5 4 1 3 1 2 4 4 5 6 5 2 4 6 6 5 7 8 11 11 11 11 13 11 10 10 7 8 8 9 10 11 10 10 10 10 9 10
5 5 4 2 5 7 2 2 3 4 4 4 1 5 6 7 5 5 3 6 8 9 9 11 11 11 10 7 9 12 11 10 10 10 9 11 10 10 12 12 13 14 11 11
7 6 5 9 3 1 3 5 5 4 4 1 4 6 4 6 7 5 8 7 7 6 11 10 11 10 11 12 12 13 11 11 11 9 9 10 11 11 10 9 10 10 9 10
8 1 2 7 4 2 4 4 4 4 3 6 5 6 3 4 4 7 9 7 8 7 4 3 5 9 11 11 10 9 7 8 9 9 10 9 10 10 8 8 8 2 4 4
7 4 8 9 9 4 3 4 4 5 3 4 6 6 5 7 6 7 8 7 6 6 6 5 4 6 6 6 5 5 5 6 9 10 10 8 5 5 5 4 5 6 6 7
6 4 4 4 4 3 4 4 7 6 6 6 8 7 5 5 5 6 6 4 4 4 7 7 6 6 4 4 5 6 8 6 8 9 8 7 8 8 8 7 5 4 5 6
3 4 3 2 3 4 4 6 6 6 3 6 5 5 3 4 4 7 8 7 7 6 6 1 6 6 7 7 7 6 7 7 9 9 9 9 9 7 8 8 8 7 7 5
5 6 4 4 2 2 5 8 8 6 5 6 6 8 3 3 6 5 6 7 7 7 8 8 7 5 5 5 5 8 9 10 10 11 10 10 10 11 10 9 6 4 3 3
7 6 3 3 3 3 7 3 4 5 2 4 5 6 4 6 5 6 6 5 7 7 8 8 7 8 8 8 11 11 11 11 12 12 12 11 12 10 7 5 3 3 3 5
3 5 3 5 4 5 3 3 7 6 2 3 7 8 7 6 5 7 9 9 8 7 7 7 7 8 11 11 11 14 14 13 14 13 12 9 7 4 3 2 3 5 5 5
6 6 5 3 5 7 8 4 5 6 2 5 5 7 8 3 3 3 5 7 9 9 7 8 9 11 13 11 12 16 14 14 11 9 6 4 3 1 2 5 5 3 3 5
3 3 6 3 3 7 7 5 5 6 7 8 7 7 6 4 2 7 8 8 9 8 10 10 12 12 10 10 12 12 10 9 6 4 3 1 1 3 4 3 2 3 5 5
7 7 4 3 3 6 5 4 8 6 3 7 6 5 6 10 10 10 9 8 8 9 9 8 10 9 7 7 9 8 8 4 4 4 4 3 3 3 3 4 4 5 5 6
3 7 6 8 6 3 3 4 1 4 9 5 7 6 13 13 8 10 9 8 7 7 6 7 10 10 9 9 8 7 4 5 5 4 4 4 5 5 4 4 5 4 5 4
2 3 4 4 1 1 3 3 3 4 5 7 8 14 11 15 12 12 10 8 7 6 8 8 9 9 8 7 8 6 6 5 5 5 5 5 5 6 6 4 4 4 4 6
5 7 7 3 2 3 5 3 5 9 10 14 11 9 14 16 12 12 10 9 7 7 7 7 7 8 7 7 8 6 6 6 5 5 5 5 4 5 6 5 5 6 7 7
5 7 6 5 12 5 5 7 7 10 9 10 16 12 9 13 14 13 10 7 8 8 7 8 8 8 6 7 8 8 7 6 6 6 5 4 5 5 6 7 10 7 12 18
Wind_Direction
346 72 209 236 213 209 262 214 212 198 242 181 232 232 198 199 181 157 180 180 189 197 195 194 192 189 184 167 157 170 152 159 154 149 151 146 165 140 139 174 168 165 169 152
17 243 230 208 254 282 16 267 332 336 286 170 171 254 216 196 204 181 187 189 200 200 186 190 193 187 183 180 174 171 170 169 174 164 140 144 139 168 157 170 172 175 167 160
165 249 158 236 84 336 164 210 337 236 333 281 102 308 241 195 193 224 200 201 202 193 190 188 189 190 182 187 185 180 180 179 177 154 129 85 92 74 97 154 183 183 177 177
228 245 222 246 184 145 294 225 222 258 162 247 124 251 253 220 203 198 213 191 195 198 198 192 190 193 191 196 191 188 185 180 176 164 174 163 171 165 201 184 163 165 177 172
252 174 200 267 234 156 233 201 255 254 192 134 257 79 272 156 214 217 210 202 196 196 194 194 195 198 197 186 190 187 182 184 178 178 183 180 177 181 140 138 152 142 119 124
251 276 166 222 283 160 220 20 27 36 58 42 251 147 274 202 220 222 206 209 196 192 198 202 204 187 185 172 186 179 182 189 189 183 181 190 196 178 157 150 143 117 90 86
330 220 228 211 265 106 78 68 326 5 17 220 329 91 241 262 258 216 198 205 192 186 173 182 176 184 179 183 186 188 191 198 201 196 188 190 201 181 185 163 151 139 133 126
154 314 184 196 192 156 143 146 162 216 191 258 322 249 253 257 301 233 207 194 163 166 174 182 191 187 184 184 190 191 196 204 202 200 195 187 178 178 165 158 152 147 142 137
148 269 271 226 225 137 159 199 189 108 22 53 260 293 311 324 39 64 97 153 186 182 183 187 183 183 183 189 196 197 195 203 201 201 165 148 150 137 131 122 120 123 124 116
208 168 189 310 359 258 167 176 43 12 171 247 288 282 245 311 319 78 147 198 204 168 157 172 180 181 188 188 196 190 190 197 183 155 158 157 155 142 133 131 136 142 133 141
135 125 287 98 194 210 142 229 73 121 137 167 203 272 219 240 266 293 243 212 193 177 174 181 189 189 184 167 174 188 189 173 170 168 154 147 149 146 142 156 159 162 157 161
197 145 182 213 203 108 169 171 147 130 225 152 152 267 250 254 265 259 259 201 211 211 191 192 192 173 172 187 191 194 184 177 173 162 146 149 149 155 152 153 156 155 165 181
178 203 92 338 360 254 194 179 166 113 83 191 144 257 298 257 258 242 248 240 199 210 218 181 168 190 196 197 189 187 183 175 147 150 145 154 161 163 158 149 148 161 139 155
104 135 162 199 210 179 170 205 152 132 120 191 219 254 275 248 269 270 250 254 247 204 196 195 201 218 212 186 165 146 128 138 149 147 147 151 142 111 114 109 132 149 151 136
132 157 160 219 204 212 183 185 173 187 204 165 249 210 268 291 261 284 219 64 91 164 150 185 200 215 222 144 139 127 129 138 138 130 127 113 105 111 123 127 104 81 98 97
299 158 132 124 23 359 229 233 191 217 213 256 242 249 221 294 9 53 76 89 78 67 60 61 232 216 193 167 148 128 120 119 122 119 111 113 110 103 98 85 81 81 72 72
135 131 109 215 61 359 324 228 221 218 204 183 188 217 151 69 58 49 74 80 74 51 35 28 33 52 76 82 88 109 112 109 105 104 100 96 91 87 82 82 91 110 178 250
138 110 85 173 54 295 249 290 230 182 267 248 121 122 123 127 110 64 32 98 73 53 38 35 34 50 51 77 87 90 88 90 92 91 92 91 94 99 115 129 154 215 254 255
107 116 108 141 188 294 297 202 161 164 252 318 133 129 137 145 87 39 32 38 59 58 51 52 51 63 68 75 89 90 84 86 85 84 90 105 116 123 134 174 248 252 245 267
64 67 115 142 157 208 233 238 158 118 266 205 152 159 163 123 99 242 57 53 63 62 60 68 67 71 73 72 85 87 87 89 96 113 119 105 91 104 212 231 247 260 268 279
65 29 155 136 197 287 241 212 143 154 233 164 171 162 150 155 209 124 95 73 69 74 74 74 73 76 80 89 91 91 97 98 110 104 75 68 229 259 267 281 276 294 294 290
159 147 173 87 79 275 179 123 169 206 80 131 141 133 103 113 108 104 100 92 85 85 83 77 84 72 52 53 78 78 80 96 76 66 61 43 359 322 318 313 301 295 290 282
205 182 177 178 207 231 261 251 215 154 139 147 131 126 135 127 120 116 113 107 91 83 73 78 85 78 67 63 68 72 61 68 63 43 6 340 326 311 300 292 291 293 283 272
245 155 117 112 240 345 347 32 60 84 108 107 121 136 139 128 126 122 118 109 95 86 92 91 89 81 70 58 55 50 35 24 19 357 344 335 331 319 309 286 268 265 267 277
195 136 133 92 37 67 6 52 105 92 93 93 80 112 128 127 128 125 114 108 102 96 87 87 87 79 67 64 57 36 26 28 28 17 360 348 332 320 318 307 289 290 276 256
188 161 158 207 187 160 162 150 132 117 114 114 118 109 112 125 125 120 112 107 108 102 96 85 81 81 65 64 52 32 24 35 33 19 0 344 345 343 333 326 319 274 273 284